When you browse on this site, cookies collect data to enhance your experience and personalize the content and advertising you see.
Visit our Privacy Policy to learn more. By continuing to use the site, you agree to this use of cookies and data.
  • En España
  • Lista de países
  • Para 7 días
  • Temperatura del agua
  • Mapa Satelital
  • El tiempo en el mapa
  • Informadores
  • user-avatar
    Iniciar sesión

    Tiempo cada hora Mansa Konko

    Hoy, 16 Enero, Miércoles

    Tiempo Temperatura Precipitaciones Viento Presión Humedad
    00:00 +28°C° 0 mm 3 mps 758 mmHg 15%
    01:00 +27°C° 0 mm 3 mps 758 mmHg 16%
    02:00 +26°C° 0 mm 3 mps 758 mmHg 17%
    03:00 +25°C° 0 mm 2 mps 758 mmHg 17%
    04:00 +25°C° 0 mm 2 mps 758 mmHg 17%
    05:00 +24°C° 0 mm 2 mps 758 mmHg 17%
    06:00 +25°C° 0 mm 2 mps 759 mmHg 16%
    07:00 +26°C° 0 mm 2 mps 759 mmHg 14%
    08:00 +26°C° 0 mm 2 mps 759 mmHg 12%
    09:00 +30°C° 0 mm 2 mps 759 mmHg 10%
    10:00 +34°C° 0 mm 2 mps 759 mmHg 8%
    11:00 +37°C° 0 mm 3 mps 759 mmHg 6%
    12:00 +39°C° 0 mm 3 mps 758 mmHg 6%
    13:00 +40°C° 0 mm 2 mps 757 mmHg 6%
    14:00 +41°C° 0 mm 2 mps 757 mmHg 5%
    15:00 +41°C° 0 mm 2 mps 756 mmHg 6%
    16:00 +40°C° 0 mm 3 mps 756 mmHg 6%
    17:00 +40°C° 0 mm 3 mps 756 mmHg 7%
    18:00 +37°C° 0 mm 3 mps 756 mmHg 8%
    19:00 +35°C° 0 mm 3 mps 757 mmHg 10%
    20:00 +33°C° 0 mm 3 mps 757 mmHg 12%
    21:00 +31°C° 0 mm 3 mps 758 mmHg 16%
    22:00 +29°C° 0 mm 4 mps 758 mmHg 20%
    23:00 +28°C° 0 mm 4 mps 758 mmHg 23%

    Mañana, 17 Enero, Jueves

    Tiempo Temperatura Precipitaciones Viento Presión Humedad
    00:00 +27°C° 0 mm 4 mps 758 mmHg 26%
    01:00 +26°C° 0 mm 3 mps 758 mmHg 28%
    02:00 +25°C° 0 mm 3 mps 758 mmHg 31%
    03:00 +24°C° 0 mm 2 mps 758 mmHg 31%
    04:00 +23°C° 0 mm 2 mps 758 mmHg 31%
    05:00 +23°C° 0 mm 1 mps 758 mmHg 31%
    06:00 +24°C° 0 mm 1 mps 758 mmHg 27%
    07:00 +24°C° 0 mm 1 mps 759 mmHg 24%
    08:00 +25°C° 0 mm 1 mps 759 mmHg 21%
    09:00 +28°C° 0 mm 2 mps 759 mmHg 17%
    10:00 +32°C° 0 mm 2 mps 759 mmHg 12%
    11:00 +36°C° 0 mm 2 mps 759 mmHg 8%
    12:00 +37°C° 0 mm 2 mps 758 mmHg 7%
    13:00 +38°C° 0 mm 2 mps 757 mmHg 7%
    14:00 +40°C° 0 mm 2 mps 756 mmHg 7%
    15:00 +39°C° 0 mm 2 mps 756 mmHg 7%
    16:00 +39°C° 0 mm 2 mps 756 mmHg 8%
    17:00 +39°C° 0 mm 2 mps 756 mmHg 8%
    18:00 +36°C° 0 mm 3 mps 756 mmHg 15%
    19:00 +33°C° 0 mm 3 mps 757 mmHg 21%
    20:00 +30°C° 0 mm 4 mps 757 mmHg 28%
    21:00 +29°C° 0 mm 4 mps 758 mmHg 25%
    22:00 +28°C° 0 mm 4 mps 758 mmHg 23%
    23:00 +28°C° 0 mm 4 mps 758 mmHg 21%

    Pasado mañana, 18 Enero, Viernes

    Tiempo Temperatura Precipitaciones Viento Presión Humedad
    00:00 +27°C° 0 mm 4 mps 758 mmHg 20%
    01:00 +26°C° 0 mm 4 mps 758 mmHg 20%
    02:00 +25°C° 0 mm 3 mps 758 mmHg 19%
    03:00 +24°C° 0 mm 3 mps 758 mmHg 17%
    04:00 +24°C° 0 mm 3 mps 758 mmHg 15%
    05:00 +22°C° 0 mm 3 mps 758 mmHg 13%
    06:00 +23°C° 0 mm 4 mps 759 mmHg 12%
    07:00 +23°C° 0 mm 4 mps 759 mmHg 11%
    08:00 +25°C° 0 mm 4 mps 760 mmHg 10%
    09:00 +27°C° 0 mm 4 mps 760 mmHg 9%
    10:00 +30°C° 0 mm 4 mps 760 mmHg 8%
    11:00 +33°C° 0 mm 5 mps 760 mmHg 7%
    12:00 +34°C° 0 mm 5 mps 759 mmHg 7%
    13:00 +36°C° 0 mm 4 mps 758 mmHg 7%
    14:00 +37°C° 0 mm 4 mps 757 mmHg 6%
    15:00 +36°C° 0 mm 5 mps 757 mmHg 7%
    16:00 +36°C° 0 mm 5 mps 757 mmHg 7%
    17:00 +35°C° 0 mm 5 mps 757 mmHg 8%
    18:00 +33°C° 0 mm 4 mps 758 mmHg 10%
    19:00 +30°C° 0 mm 4 mps 758 mmHg 11%
    20:00 +28°C° 0 mm 4 mps 759 mmHg 13%
    21:00 +28°C° 0 mm 4 mps 759 mmHg 14%
    22:00 +27°C° 0 mm 4 mps 760 mmHg 15%
    23:00 +26°C° 0 mm 4 mps 760 mmHg 16%

    19 Enero, Sábado

    Tiempo Temperatura Precipitaciones Viento Presión Humedad
    00:00 +25°C° 0 mm 4 mps 760 mmHg 17%
    01:00 +25°C° 0 mm 4 mps 759 mmHg 19%
    02:00 +23°C° 0 mm 4 mps 759 mmHg 20%
    03:00 +22°C° 0 mm 4 mps 759 mmHg 21%
    04:00 +22°C° 0 mm 4 mps 760 mmHg 22%
    05:00 +21°C° 0 mm 4 mps 760 mmHg 24%
    06:00 +22°C° 0 mm 5 mps 760 mmHg 24%
    07:00 +22°C° 0 mm 5 mps 761 mmHg 24%
    08:00 +22°C° 0 mm 6 mps 761 mmHg 24%
    09:00 +24°C° 0 mm 6 mps 761 mmHg 22%
    10:00 +27°C° 0 mm 6 mps 761 mmHg 19%
    11:00 +29°C° 0 mm 6 mps 761 mmHg 17%
    12:00 +32°C° 0 mm 5 mps 760 mmHg 15%
    13:00 +33°C° 0 mm 5 mps 759 mmHg 14%
    14:00 +35°C° 0 mm 5 mps 758 mmHg 12%
    15:00 +34°C° 0 mm 4 mps 758 mmHg 12%
    16:00 +34°C° 0 mm 4 mps 758 mmHg 12%
    17:00 +34°C° 0 mm 4 mps 758 mmHg 11%
    18:00 +31°C° 0 mm 3 mps 758 mmHg 12%
    19:00 +29°C° 0 mm 3 mps 759 mmHg 13%
    20:00 +27°C° 0 mm 3 mps 760 mmHg 14%
    21:00 +26°C° 0 mm 3 mps 760 mmHg 14%
    22:00 +26°C° 0 mm 3 mps 760 mmHg 14%
    23:00 +25°C° 0 mm 3 mps 760 mmHg 14%

    20 Enero, Domingo

    Tiempo Temperatura Precipitaciones Viento Presión Humedad
    00:00 +24°C° 0 mm 3 mps 760 mmHg 15%
    01:00 +22°C° 0 mm 3 mps 760 mmHg 15%
    02:00 +22°C° 0 mm 3 mps 760 mmHg 16%
    03:00 +21°C° 0 mm 3 mps 760 mmHg 16%
    04:00 +20°C° 0 mm 3 mps 760 mmHg 16%
    05:00 +20°C° 0 mm 3 mps 760 mmHg 17%
    06:00 +21°C° 0 mm 4 mps 760 mmHg 16%
    07:00 +21°C° 0 mm 4 mps 761 mmHg 16%
    08:00 +22°C° 0 mm 5 mps 761 mmHg 16%
    09:00 +26°C° 0 mm 5 mps 761 mmHg 14%
    10:00 +28°C° 0 mm 5 mps 761 mmHg 12%
    11:00 +32°C° 0 mm 5 mps 761 mmHg 11%
    12:00 +34°C° 0 mm 4 mps 760 mmHg 10%
    13:00 +35°C° 0 mm 4 mps 759 mmHg 9%
    14:00 +36°C° 0 mm 3 mps 758 mmHg 8%
    15:00 +36°C° 0 mm 3 mps 758 mmHg 8%
    16:00 +36°C° 0 mm 3 mps 758 mmHg 8%
    17:00 +36°C° 0 mm 3 mps 758 mmHg 9%
    18:00 +34°C° 0 mm 3 mps 759 mmHg 10%
    19:00 +30°C° 0 mm 2 mps 759 mmHg 11%
    20:00 +28°C° 0 mm 2 mps 760 mmHg 12%
    21:00 +27°C° 0 mm 3 mps 760 mmHg 12%
    22:00 +27°C° 0 mm 3 mps 760 mmHg 12%
    23:00 +26°C° 0 mm 3 mps 760 mmHg 11%

    21 Enero, Lunes

    Tiempo Temperatura Precipitaciones Viento Presión Humedad
    00:00 +25°C° 0 mm 3 mps 760 mmHg 11%
    01:00 +24°C° 0 mm 3 mps 760 mmHg 10%
    02:00 +24°C° 0 mm 3 mps 760 mmHg 9%
    03:00 +22°C° 0 mm 3 mps 760 mmHg 9%
    04:00 +21°C° 0 mm 3 mps 760 mmHg 8%
    05:00 +21°C° 0 mm 3 mps 760 mmHg 8%
    06:00 +21°C° 0 mm 3 mps 760 mmHg 8%
    07:00 +22°C° 0 mm 4 mps 761 mmHg 7%
    08:00 +23°C° 0 mm 4 mps 761 mmHg 7%
    09:00 +26°C° 0 mm 4 mps 761 mmHg 7%
    10:00 +29°C° 0 mm 4 mps 761 mmHg 6%
    11:00 +33°C° 0 mm 4 mps 760 mmHg 5%
    12:00 +34°C° 0 mm 4 mps 759 mmHg 5%
    13:00 +35°C° 0 mm 4 mps 759 mmHg 5%
    14:00 +37°C° 0 mm 3 mps 758 mmHg 5%
    15:00 +36°C° 0 mm 3 mps 757 mmHg 5%
    16:00 +36°C° 0 mm 3 mps 757 mmHg 6%
    17:00 +36°C° 0 mm 3 mps 757 mmHg 6%
    18:00 +34°C° 0 mm 3 mps 758 mmHg 7%
    19:00 +31°C° 0 mm 3 mps 758 mmHg 7%
    20:00 +28°C° 0 mm 2 mps 759 mmHg 8%
    21:00 +28°C° 0 mm 3 mps 759 mmHg 7%
    22:00 +27°C° 0 mm 3 mps 759 mmHg 7%
    23:00 +26°C° 0 mm 4 mps 760 mmHg 6%
    Mostrar más